Location: Olsztyn
(53.7767°N, 20.4765°E)
Time: 17:41:51
(UTC+02:00)

A-11 Canister half - Pass Details

Date: 25 January 2022
Orbit: 1513 x 1686 km, 47.2° (Epoch: 24 May)

Event Time Altitude Azimuth Distance (km) Brightness Sun altitude
Rises 22:25:49 0° 283° (WNW) 4,675 11.9 -51.4°
Reaches altitude 10° 22:29:18 10° 274° (W) 3,681 11.2 -51.7°
Enters shadow 22:30:32 14° 269° (W) 3,361 10.9 -51.8°
